Regional Weather Roundup
Issued by NWS

Home | Current Version | Previous Version | Graphics & Text | Print | Product List | Glossary Off
Versions: 1 2 3 4 5 6 7 8 9 10 11 12 13 14 15 16 17 18 19 20 21 22 23 24 25 26 27 28 29 30 31 32 33 34 35 36 37 38 39 40 41 42 43 44 45 46 47 48 49 50

000
ASUS43 KDMX 190406
RWRIA

WEATHER ROUNDUP FOR IOWA
NATIONAL WEATHER SERVICE DES MOINES IA
1100 PM CDT FRI AUG 18 2017

NOTE: "FAIR" INDICATES FEW OR NO CLOUDS BELOW 12,000 FEET WITH NO
SIGNIFICANT WEATHER AND/OR OBSTRUCTIONS TO VISIBILITY.

* - THESE STATIONS ARE NOT NWS STATIONS...THUS NOT UNDER NWS
QUALITY CONTROL.  THEY ALSO DO NOT REPORT WEATHER SUCH
AS PRECIPITATION OR FOG.

IAZ001>003-012>014-020>022-031>034-043>046-190500-
   NORTHWEST IOWA

CITY           SKY/WX    TMP DP  RH WIND       PRES   REMARKS
CARROLL *        N/A     70  66  88 SW7       29.90F
CHEROKEE *       N/A     65  62  93 CALM      29.93F
DENISON *        N/A     68  66  94 CALM      29.94S
LE MARS *        N/A     66  61  82 NW6       29.95R
ORANGE CITY *    N/A     64  63  94 NW5       29.94F
SHELDON *        N/A     61  61 100 W6        29.92S
SIOUX CITY       N/A     69  61  75 N9        29.95R
SPENCER          N/A     62  60  93 S5        29.93S
STORM LAKE *     N/A     63  59  88 S8        29.94S
$$

IAZ055>058-069>071-079>083-090>094-190500-
   SOUTHWEST IOWA

CITY           SKY/WX    TMP DP  RH WIND       PRES   REMARKS
ATLANTIC *     MOCLDY    68  66  94 CALM      29.93S
AUDUBON *        N/A     66  63  88 CALM      29.94F
CLARINDA *     FOG       64  64 100 CALM      29.96R VSB<1/4
COUNCIL BLFS *   N/A     73  68  83 W3        29.94R
CRESTON *        N/A     70  64  83 CALM      29.95S
HARLAN  *        N/A     66  66 100 CALM      29.96S
LAMONI           N/A     70  67  90 W6        29.93R
RED OAK *        N/A     66  64  94 N5        29.94R
SHENANDOAH *     N/A     66  64  94 CALM      29.94R
$$

IAZ047>049-059>061-072>074-084-190500-
   CENTRAL IOWA

CITY           SKY/WX    TMP DP  RH WIND       PRES   REMARKS
AMES             N/A     67  66  97 CALM      29.92R
ANKENY *         N/A     68  64  88 CALM      29.93S
BOONE *        MOCLDY    68  64  88 CALM      29.92S
CHARITON *       N/A     72  66  83 NE5       29.92S
DES MOINES     MOCLDY    74  66  76 E7        29.91R
GRINNELL*        N/A     67  62  86 CALM      29.94R
KNOXVILLE *    MOCLDY    72  66  83 E5        29.92R
MARSHALLTOWN     N/A     64  62  93 E5        29.92R
NEWTON *       MOCLDY    70  64  83 CALM      29.93R
PELLA *          N/A     72  64  76 E3        29.93R
PERRY *          N/A     67  66  97 E3        29.92F
$$

IAZ004>006-015-016-023>025-035-036-190500-
   NORTH CENTRAL IOWA

CITY           SKY/WX    TMP DP  RH WIND       PRES   REMARKS
ALGONA *       LGT RAIN  66  66 100 SE8       29.91F
CLARION *      CLOUDY    66  66 100 S10       29.94R
ESTHERVILLE    MOCLDY    58  58 100 CALM      29.93R
FORT DODGE *   MOCLDY    66  63  88 E10       29.92S
MASON CITY       N/A     60  58  92 CALM      29.95S
FOREST CITY *    N/A     64  61  88 NW5       29.95R
WEBSTER CITY * LGT RAIN  66  64  94 SE16      29.90F
IOWA FALLS *     N/A     65  62  91 CALM      29.94S
$$

IAZ007>011-017>019-026>030-037>042-050>054-066-190500-
   NORTHEAST IOWA

CITY           SKY/WX    TMP DP  RH WIND       PRES   REMARKS
CEDAR RAPIDS     N/A     65  60  84 NE7       29.91F
CHARLES CITY * MOCLDY    61  61 100 NE5       29.95R
CLINTON *        N/A     64  62  93 N7        29.92S
DECORAH *        N/A     59  59 100 CALM      29.93S
DUBUQUE          N/A     62  58  86 N6        29.94R
MONTICELLO *     N/A     59  59 100 CALM      29.93S
OELWEIN *        N/A     59  59 100 E5        29.94S
WATERLOO         N/A     59  58  96 CALM      29.92R
$$

IAZ064-065-067-068-078-190500-
   EAST CENTRAL IOWA

CITY           SKY/WX    TMP DP  RH WIND       PRES   REMARKS
DAVENPORT        N/A     64  61  90 N6        29.93S
IOWA CITY        N/A     69  61  75 NE5       29.93R
MT. PLEASANT *   N/A     67  66  97 N6        29.90S
MUSCATINE *      N/A     68  63  83 N7        29.90F
QUAD CITIES      N/A     72  60  66 N3        29.91R
$$

IAZ062-063-075>077-085>089-095>099-190500-
   SOUTHEAST IOWA

CITY           SKY/WX    TMP DP  RH WIND       PRES   REMARKS
BURLINGTON       N/A     67  67 100 CALM      29.90R
FAIRFIELD *    CLOUDY    66  64  94 N6        29.90F
FORT MADISON *   N/A     66  66 100 CALM      29.90S
KEOKUK *         N/A     68  66  94 CALM      29.90R
OSKALOOSA *    LGT RAIN  68  66  92 CALM      29.92S
CENTERVILLE *    N/A     66  64  94 CALM      29.93R
OTTUMWA          N/A     72  67  84 E5        29.91S
WASHINGTON *     N/A     68  66  94 N6        29.92S
$$

ABBREVIATIONS USED IN REMARKS
   TC - TEMPERATURES IN CELSIUS
  WCI - WIND CHILL INDEX
   HX - HEAT INDEX
  VSB - VISIBILITY
$$





USA.gov is the U.S. government's official web portal to all federal, state and local government web resources and services.